This is the latest recevied weather packets stored in our database for station/object W4CKA. If no packets are shown the sender has not sent any weather packets the latest 10 day(s).
| Time | Temp. | Humidity | Pressure | Rain* | Wind** | Luminosity | Snow |
|---|---|---|---|---|---|---|---|
| 1787655650 | 13.33° C | 99% | 1061.8 hPa | 0 mm | - | 1 W/m² | - |
| 1787655048 | 13.33° C | 99% | 1061.5 hPa | 0 mm | - | 0 W/m² | - |
| 1787654446 | 13.33° C | 99% | 1061.6 hPa | 0 mm | - | 0 W/m² | - |
| 1787653841 | 12.78° C | 99% | 1061.5 hPa | 0 mm | - | 0 W/m² | - |
| 1787653238 | 13.33° C | 99% | 1061.3 hPa | 0 mm | - | 0 W/m² | - |
| 1787652633 | 13.33° C | 99% | 1061.3 hPa | 0 mm | - | 0 W/m² | - |
| 1787652028 | 13.89° C | 99% | 1061 hPa | 0 mm | - | 0 W/m² | - |
| 1787651427 | 13.89° C | 99% | 1061 hPa | 0 mm | - | 0 W/m² | - |
| 1787650825 | 14.44° C | 99% | 1061 hPa | 0 mm | - | 0 W/m² | - |
| 1787650222 | 14.44° C | 99% | 1060.8 hPa | 0 mm | - | 0 W/m² | - |
| 1787649617 | 14.44° C | 99% | 1060.6 hPa | 0 mm | - | 0 W/m² | - |
| 1787649013 | 14.44° C | 99% | 1060.7 hPa | 0 mm | - | 0 W/m² | - |
| 1787648411 | 13.89° C | 99% | 1060.8 hPa | 0 mm | - | 0 W/m² | - |
| 1787647812 | 14.44° C | 99% | 1060.8 hPa | 0 mm | - | 0 W/m² | - |
| 1787647212 | 14.44° C | 99% | 1060.6 hPa | 0 mm | - | 0 W/m² | - |
| 1787646609 | 15° C | 99% | 1060.7 hPa | 0 mm | - | 0 W/m² | - |
| 1787646005 | 15° C | 99% | 1060.9 hPa | 0 mm | - | 0 W/m² | - |
| 1787645402 | 15° C | 99% | 1060.6 hPa | 0 mm | - | 0 W/m² | - |
| 1787644797 | 15° C | 99% | 1060.6 hPa | 0 mm | - | 0 W/m² | - |
| 1787644194 | 15° C | 99% | 1060.7 hPa | 0 mm | - | 0 W/m² | - |
| 1787643595 | 15° C | 99% | 1060.4 hPa | 0 mm | - | 0 W/m² | - |
| 1787642993 | 15° C | 98% | 1060.6 hPa | 0 mm | - | 0 W/m² | - |
| 1787642393 | 15° C | 97% | 1060.6 hPa | 0 mm | - | 0 W/m² | - |
| 1787641790 | 15.56° C | 98% | 1060.7 hPa | 0 mm | - | 0 W/m² | - |
| 1787641189 | 15.56° C | 98% | 1060.5 hPa | 0 mm | - | 0 W/m² | - |
* Rain latest hour (hover to see other rain measurements)
** Current wind speed in m/s (hover to see current wind gust speed)